TimeMST,TemperatureF,Dew PointF,Humidity,Sea Level PressureIn,VisibilityMPH,Wind Direction,Wind SpeedMPH,Gust SpeedMPH,PrecipitationIn,Events,Conditions,WindDirDegrees,DateUTC
12:57 AM,33.1,24.1,70,30.06,10.0,Calm,Calm,-,N/A,,Clear,0,2013-03-31 07:57:00
1:57 AM,32.0,24.1,73,30.05,10.0,Calm,Calm,-,N/A,,Clear,0,2013-03-31 08:57:00
2:57 AM,30.9,24.1,76,30.04,10.0,Calm,Calm,-,N/A,,Clear,0,2013-03-31 09:57:00
3:57 AM,30.9,25.0,79,30.03,10.0,Calm,Calm,-,N/A,,Clear,0,2013-03-31 10:57:00
4:57 AM,32.0,26.1,79,30.04,10.0,SW,3.5,-,N/A,,Clear,220,2013-03-31 11:57:00
5:57 AM,30.9,25.0,79,30.05,10.0,Calm,Calm,-,N/A,,Clear,0,2013-03-31 12:57:00
6:57 AM,34.0,27.0,75,30.07,10.0,SW,3.5,-,N/A,,Clear,230,2013-03-31 13:57:00
7:57 AM,48.9,30.0,48,30.03,10.0,Calm,Calm,-,N/A,,Clear,0,2013-03-31 14:57:00
8:57 AM,55.0,27.0,34,30.03,10.0,West,4.6,-,N/A,,Clear,260,2013-03-31 15:57:00
9:57 AM,57.9,26.1,30,30.04,10.0,SSW,10.4,-,N/A,,Partly Cloudy,210,2013-03-31 16:57:00
10:57 AM,60.1,26.1,27,30.04,10.0,SW,13.8,23.0,N/A,,Mostly Cloudy,220,2013-03-31 17:57:00
11:57 AM,60.1,26.1,27,30.05,10.0,South,16.1,24.2,N/A,,Clear,190,2013-03-31 18:57:00
12:57 PM,61.0,26.1,26,30.03,10.0,South,11.5,21.9,N/A,,Partly Cloudy,180,2013-03-31 19:57:00
1:57 PM,62.1,26.1,25,30.00,10.0,SW,18.4,25.3,N/A,,Mostly Cloudy,220,2013-03-31 20:57:00
2:57 PM,62.1,25.0,24,29.98,10.0,SW,17.3,31.1,N/A,,Mostly Cloudy,230,2013-03-31 21:57:00
3:57 PM,60.1,25.0,26,29.97,10.0,SSW,16.1,24.2,N/A,,Scattered Clouds,200,2013-03-31 22:57:00
4:57 PM,60.1,24.1,25,29.96,10.0,SW,15.0,-,N/A,,Clear,220,2013-03-31 23:57:00
5:57 PM,57.9,21.9,25,29.96,10.0,SSW,16.1,-,N/A,,Clear,210,2013-04-01 00:57:00
6:57 PM,53.1,23.0,31,29.97,10.0,SSW,11.5,-,N/A,,Clear,210,2013-04-01 01:57:00
7:57 PM,50.0,23.0,35,29.93,10.0,SW,10.4,-,N/A,,Clear,220,2013-04-01 02:57:00
8:57 PM,48.0,23.0,37,29.92,10.0,SW,6.9,-,N/A,,Clear,220,2013-04-01 03:57:00
9:57 PM,42.1,23.0,47,29.94,10.0,SW,4.6,-,N/A,,Clear,230,2013-04-01 04:57:00
10:57 PM,39.9,23.0,51,29.92,10.0,WSW,3.5,-,N/A,,Clear,240,2013-04-01 05:57:00
11:57 PM,39.9,23.0,51,29.91,10.0,SW,6.9,-,N/A,,Clear,230,2013-04-01 06:57:00